TimeCDT,TemperatureF,Dew PointF,Humidity,Sea Level PressureIn,VisibilityMPH,Wind Direction,Wind SpeedMPH,Gust SpeedMPH,PrecipitationIn,Events,Conditions,WindDirDegrees,DateUTC
12:54 AM,41.0,32.0,70,30.35,10.0,North,10.4,20.7,N/A,,Overcast,360,2013-05-02 05:54:00
1:54 AM,39.9,32.0,73,30.36,10.0,North,11.5,-,N/A,,Overcast,350,2013-05-02 06:54:00
2:54 AM,39.9,32.0,73,30.34,10.0,North,13.8,21.9,N/A,,Overcast,360,2013-05-02 07:54:00
3:54 AM,39.0,32.0,76,30.35,10.0,North,12.7,21.9,N/A,,Mostly Cloudy,360,2013-05-02 08:54:00
4:54 AM,39.0,32.0,76,30.32,10.0,NNE,13.8,-,N/A,,Mostly Cloudy,20,2013-05-02 09:54:00
5:54 AM,39.0,32.0,76,30.35,10.0,North,11.5,21.9,N/A,,Overcast,360,2013-05-02 10:54:00
6:14 AM,39.2,32.0,75,30.33,10.0,North,13.8,20.7,N/A,,Overcast,10,2013-05-02 11:14:00
6:27 AM,39.2,32.0,75,30.33,10.0,North,15.0,19.6,N/A,,Overcast,10,2013-05-02 11:27:00
6:54 AM,39.9,32.0,73,30.37,10.0,North,11.5,-,N/A,,Overcast,350,2013-05-02 11:54:00
7:11 AM,39.2,32.0,75,30.34,10.0,North,11.5,-,N/A,,Overcast,360,2013-05-02 12:11:00
7:54 AM,39.9,32.0,73,30.37,10.0,North,12.7,-,N/A,,Overcast,360,2013-05-02 12:54:00
8:54 AM,39.9,32.0,73,30.41,10.0,NNW,12.7,-,N/A,,Overcast,330,2013-05-02 13:54:00
9:54 AM,39.0,32.0,76,30.41,10.0,North,10.4,20.7,N/A,,Overcast,360,2013-05-02 14:54:00
10:54 AM,39.0,32.0,76,30.39,10.0,NNE,16.1,25.3,0.00,Rain,Light Rain,30,2013-05-02 15:54:00
11:54 AM,41.0,32.0,70,30.38,10.0,NNE,16.1,-,0.00,,Overcast,20,2013-05-02 16:54:00
12:54 PM,39.9,32.0,73,30.38,10.0,NNE,13.8,-,N/A,,Overcast,30,2013-05-02 17:54:00
1:54 PM,39.0,34.0,82,30.35,8.0,NNE,18.4,-,0.01,Rain,Light Rain,20,2013-05-02 18:54:00
2:54 PM,39.0,34.0,82,30.39,10.0,North,8.1,20.7,0.01,,Overcast,350,2013-05-02 19:54:00
3:54 PM,37.0,33.1,86,30.37,10.0,North,12.7,-,N/A,,Overcast,360,2013-05-02 20:54:00
4:54 PM,37.0,32.0,82,30.36,10.0,North,12.7,20.7,N/A,,Overcast,350,2013-05-02 21:54:00
5:54 PM,36.0,30.9,82,30.36,10.0,North,15.0,24.2,0.00,,Overcast,360,2013-05-02 22:54:00
6:54 PM,35.1,30.0,82,30.37,10.0,North,13.8,-,0.00,Rain,Light Rain,10,2013-05-02 23:54:00
7:30 PM,33.8,30.2,87,30.32,4.0,North,16.1,24.2,0.00,Rain,Light Rain,360,2013-05-03 00:30:00
7:54 PM,33.1,30.0,89,30.36,10.0,North,17.3,-,0.00,,Overcast,10,2013-05-03 00:54:00
8:54 PM,33.1,28.9,85,30.36,10.0,North,12.7,-,N/A,,Overcast,360,2013-05-03 01:54:00
9:22 PM,33.8,28.4,81,30.32,10.0,North,15.0,20.7,N/A,,Overcast,10,2013-05-03 02:22:00
9:54 PM,34.0,28.9,82,30.37,10.0,North,11.5,-,N/A,,Overcast,350,2013-05-03 02:54:00
10:54 PM,34.0,28.9,82,30.35,10.0,North,9.2,-,N/A,,Overcast,360,2013-05-03 03:54:00
11:11 PM,33.8,28.4,81,30.31,10.0,North,12.7,-,N/A,,Overcast,10,2013-05-03 04:11:00
11:54 PM,33.1,28.9,85,30.33,10.0,North,10.4,-,N/A,,Overcast,360,2013-05-03 04:54:00